Vernon, TX

5:51 PM CDT on May 26, 2018 (GMT -0500)
Vernon

Weather History for KF05 - May, 2013

Change the Weather History Date:

Friday, May 10, 2013

  Actual Average (KLTS) Record (KLTS)
Temperature  
Mean Temperature 66 °F -  
Max Temperature 83 °F 81 °F 95 °F (2000)
Min Temperature 56 °F 56 °F 46 °F (1997)
Cooling Degree Days 1    
Growing Degree Days 16 (Base 50)    
Moisture  
Dew Point 53 °F    
Average Humidity 63    
Maximum Humidity 91    
Minimum Humidity 39    
Precipitation  
Precipitation 0.03 in - - ()
Sea Level Pressure  
Sea Level Pressure 30.05 in    
Wind  
Wind Speed 10 mph (North)    
Max Wind Speed 20 mph    
Max Gust Speed 28 mph    
Visibility 10 miles    
Events Thunderstorm    
Averages and records for this station are not official NWS values.
T = Trace of Precipitation, MM = Missing Value Source: NWS Daily Summary

Daily Weather History Graph

Daily Weather History Graph

Search for Another Location

Airport or City:

Astronomy

May. 10, 2013 Rise Set
Actual Time 6:38 AM CDT 8:28 PM CDT
Civil Twilight 6:11 AM CDT 8:56 PM CDT
Nautical Twilight 5:38 AM CDT 9:29 PM CDT
Astronomical Twilight 5:03 AM CDT 10:04 PM CDT
Moon 7:04 AM CDT (5/10) 9:18 PM CDT (5/10)
Length of Visible Light 14h 44m
Length of Day
13h 49m
New Moon, 0% of the Moon is Illuminated
May 10
New Moon
May 17
First Quarter
May 24
Full
May 31
Last Quarter
Jun 8
New

Hourly Weather History & Observations

Time (CDT) Temp. Dew Point Humidity Pressure Visibility Wind Dir Wind Speed Gust Speed Precip Events Conditions
12:35 AM 61.9 °F 51.4 °F 69% 29.96 in 10.0 mi NE 5.8 mph - N/A   Clear
12:55 AM 61.9 °F 52.2 °F 70% 29.98 in 10.0 mi North 9.2 mph - N/A   Clear
1:15 AM 62.4 °F 52.9 °F 71% 30.02 in 10.0 mi North 5.8 mph - N/A Thunderstorm Scattered Clouds
1:35 AM 62.8 °F 54.0 °F 73% 30.04 in 10.0 mi WNW 11.5 mph - N/A Thunderstorm Mostly Cloudy
1:55 AM 62.8 °F 56.1 °F 79% 30.05 in 10.0 mi NW 18.4 mph 27.6 mph N/A Thunderstorm Overcast
2:15 AM 61.9 °F 56.8 °F 84% 30.01 in 10.0 mi North 17.3 mph 25.3 mph 0.01 in   Overcast
2:35 AM 59.9 °F 55.4 °F 85% 30.00 in 10.0 mi North 18.4 mph 23.0 mph 0.03 in Thunderstorm Mostly Cloudy
2:55 AM 61.0 °F 54.5 °F 79% 29.98 in 10.0 mi North 19.6 mph 26.5 mph 0.03 in   Scattered Clouds
3:15 AM 61.3 °F 55.2 °F 80% 29.96 in 10.0 mi NNE 15.0 mph 25.3 mph N/A   Clear
3:55 AM 60.8 °F 55.8 °F 83% 29.96 in 10.0 mi North 8.1 mph - N/A   Clear
4:15 AM 60.8 °F 55.4 °F 82% 29.97 in 10.0 mi North 5.8 mph - N/A   Clear
4:35 AM 61.2 °F 54.5 °F 79% 29.97 in 10.0 mi Calm Calm - N/A   Clear
4:55 AM 61.2 °F 54.3 °F 78% 29.96 in 10.0 mi Calm Calm - N/A   Clear
5:15 AM 59.4 °F 53.2 °F 80% 29.97 in 10.0 mi WSW 6.9 mph - N/A   Clear
5:35 AM 56.5 °F 53.2 °F 89% 29.99 in 10.0 mi WNW 6.9 mph - N/A   Clear
5:55 AM 56.8 °F 54.0 °F 90% 30.02 in 10.0 mi West 8.1 mph - N/A   Clear
6:15 AM 56.8 °F 54.1 °F 91% 30.03 in 10.0 mi WNW 8.1 mph - N/A   Clear
6:35 AM 57.4 °F 54.3 °F 90% 30.03 in 10.0 mi NW 9.2 mph - N/A   Scattered Clouds
7:15 AM 58.3 °F 54.7 °F 88% 30.03 in 10.0 mi NNW 9.2 mph - N/A   Clear
7:35 AM 59.5 °F 54.5 °F 83% 30.03 in 10.0 mi NNW 10.4 mph - N/A   Clear
8:35 AM 62.2 °F 55.4 °F 78% 30.06 in 10.0 mi North 12.7 mph - N/A   Clear
8:55 AM 63.3 °F 55.9 °F 77% 30.06 in 10.0 mi North 17.3 mph 23.0 mph N/A   Clear
9:15 AM 63.9 °F 56.3 °F 76% 30.07 in 10.0 mi North 18.4 mph 23.0 mph N/A   Scattered Clouds
9:35 AM 63.7 °F 56.1 °F 76% 30.08 in 10.0 mi NNE 15.0 mph 21.9 mph N/A   Mostly Cloudy
9:55 AM 63.9 °F 55.9 °F 75% 30.08 in 10.0 mi NNE 11.5 mph 20.7 mph N/A   Scattered Clouds
10:15 AM 65.3 °F 56.1 °F 72% 30.08 in 10.0 mi NNE 13.8 mph 20.7 mph N/A   Scattered Clouds
10:35 AM 66.9 °F 56.1 °F 68% 30.08 in 10.0 mi NNE 12.7 mph 21.9 mph N/A   Scattered Clouds
10:55 AM 68.2 °F 56.3 °F 66% 30.09 in 10.0 mi NNE 16.1 mph 19.6 mph N/A   Clear
11:15 AM 68.9 °F 56.1 °F 64% 30.09 in 10.0 mi NNE 13.8 mph 19.6 mph N/A   Clear
11:35 AM 69.4 °F 55.9 °F 62% 30.09 in 10.0 mi NNE 15.0 mph 20.7 mph N/A   Scattered Clouds
12:15 PM 70.7 °F 55.6 °F 59% 30.10 in 10.0 mi North 11.5 mph - N/A   Mostly Cloudy
12:35 PM 71.8 °F 55.4 °F 56% 30.10 in 10.0 mi NNE 10.4 mph 16.1 mph N/A   Scattered Clouds
12:55 PM 73.6 °F 55.0 °F 52% 30.08 in 10.0 mi North 12.7 mph 18.4 mph N/A   Scattered Clouds
1:15 PM 74.7 °F 54.5 °F 49% 30.08 in 10.0 mi North 13.8 mph 19.6 mph N/A   Scattered Clouds
1:35 PM 75.0 °F 53.8 °F 47% 30.08 in 10.0 mi NNE 11.5 mph - N/A   Scattered Clouds
1:55 PM 75.2 °F 52.9 °F 46% 30.08 in 10.0 mi North 11.5 mph 19.6 mph N/A   Scattered Clouds
2:15 PM 75.0 °F 53.2 °F 47% 30.08 in 10.0 mi North 11.5 mph 17.3 mph N/A   Scattered Clouds
2:35 PM 75.4 °F 52.7 °F 45% 30.08 in 10.0 mi North 13.8 mph 17.3 mph N/A   Scattered Clouds
2:55 PM 75.9 °F 51.8 °F 43% 30.08 in 10.0 mi NW 8.1 mph 12.7 mph N/A   Scattered Clouds
3:15 PM 76.3 °F 51.1 °F 41% 30.08 in 10.0 mi NNW 10.4 mph - N/A   Scattered Clouds
3:35 PM 76.1 °F 50.4 °F 40% 30.06 in 10.0 mi NNW 12.7 mph - N/A   Scattered Clouds
3:55 PM 76.5 °F 50.0 °F 39% 30.06 in 10.0 mi North 11.5 mph 19.6 mph N/A   Scattered Clouds
4:15 PM 75.7 °F 49.8 °F 40% 30.05 in 10.0 mi North 10.4 mph 19.6 mph N/A   Scattered Clouds
4:35 PM 75.4 °F 49.5 °F 40% 30.05 in 10.0 mi North 10.4 mph 18.4 mph N/A   Clear
4:55 PM 75.6 °F 49.3 °F 39% 30.05 in 10.0 mi North 11.5 mph 17.3 mph N/A   Scattered Clouds
5:15 PM 75.4 °F 49.3 °F 40% 30.04 in 10.0 mi North 13.8 mph 18.4 mph N/A   Scattered Clouds
5:35 PM 74.5 °F 49.3 °F 41% 30.04 in 10.0 mi NNE 12.7 mph - N/A   Scattered Clouds
5:55 PM 73.8 °F 49.3 °F 42% 30.04 in 10.0 mi NNE 10.4 mph - N/A   Clear
6:15 PM 73.4 °F 49.3 °F 42% 30.05 in 10.0 mi NNE 9.2 mph 18.4 mph N/A   Clear
6:35 PM 72.7 °F 49.5 °F 44% 30.05 in 10.0 mi NNE 12.7 mph - N/A   Clear
6:55 PM 72.5 °F 49.1 °F 44% 30.05 in 10.0 mi NNE 12.7 mph 19.6 mph N/A   Clear
7:15 PM 72.5 °F 48.7 °F 43% 30.06 in 10.0 mi NNE 10.4 mph - N/A   Clear
7:35 PM 71.4 °F 48.9 °F 45% 30.06 in 10.0 mi NNE 10.4 mph - N/A   Clear
7:55 PM 70.5 °F 48.4 °F 45% 30.06 in 10.0 mi NE 9.2 mph - N/A   Clear
8:15 PM 69.4 °F 48.4 °F 47% 30.07 in 10.0 mi NNE 6.9 mph - N/A   Clear
8:55 PM 66.0 °F 50.2 °F 57% 30.08 in 10.0 mi North 3.5 mph - N/A   Clear
9:15 PM 64.9 °F 50.4 °F 59% 30.09 in 10.0 mi Calm Calm - N/A   Clear
9:35 PM 64.0 °F 50.7 °F 62% 30.11 in 10.0 mi Calm Calm - N/A   Clear
9:55 PM 63.7 °F 50.4 °F 62% 30.12 in 10.0 mi North 3.5 mph - N/A   Clear
10:15 PM 63.5 °F 50.7 °F 63% 30.12 in 10.0 mi North 5.8 mph - N/A   Clear
10:35 PM 62.2 °F 50.2 °F 65% 30.13 in 10.0 mi North 6.9 mph - N/A   Clear
10:55 PM 60.3 °F 50.0 °F 69% 30.13 in 10.0 mi North 4.6 mph - N/A   Clear
11:15 PM 61.2 °F 50.7 °F 69% 30.13 in 10.0 mi North 5.8 mph - N/A   Clear
11:35 PM 61.0 °F 50.9 °F 69% 30.14 in 10.0 mi North 4.6 mph - N/A   Clear
11:55 PM 59.9 °F 50.5 °F 71% 30.14 in 10.0 mi North 4.6 mph - N/A   Clear